When you browse on this site, cookies collect data to enhance your experience and personalize the content and advertising you see.
Visit our Privacy Policy to learn more. By continuing to use the site, you agree to this use of cookies and data.
  • In Hungary
  • List of Countries
  • For 7 days
  • Water Temperature
  • Satellite Maps
  • Weather Map
  • News
  • Weather Widgets
  • user-avatar
    Login

    Hourly Weather Chycina

    Today, 21 May, Tuesday

    Time Temperature Precipitation Wind Pressure Humidity
    00:00 +15°C° 0 mm 2 mps 747 mmHg 84%
    01:00 +14°C° 0 mm 2 mps 748 mmHg 87%
    02:00 +14°C° 0 mm 2 mps 748 mmHg 88%
    03:00 +14°C° 0 mm 1 mps 748 mmHg 89%
    04:00 +13°C° 0 mm 1 mps 748 mmHg 91%
    05:00 +15°C° 0 mm 1 mps 748 mmHg 84%
    06:00 +17°C° 0 mm 2 mps 748 mmHg 77%
    07:00 +19°C° 0 mm 1 mps 748 mmHg 70%
    08:00 +20°C° 0 mm 2 mps 749 mmHg 63%
    09:00 +23°C° 0 mm 2 mps 749 mmHg 56%
    10:00 +24°C° 0 mm 2 mps 749 mmHg 49%
    11:00 +25°C° 0 mm 2 mps 749 mmHg 45%
    12:00 +26°C° 0 mm 2 mps 749 mmHg 42%
    13:00 +27°C° 0 mm 1 mps 748 mmHg 38%
    14:00 +26°C° 0 mm 1 mps 748 mmHg 42%
    15:00 +26°C° 0 mm 1 mps 748 mmHg 46%
    16:00 +25°C° 0 mm 1 mps 748 mmHg 49%
    17:00 +24°C° 0.2 mm 2 mps 748 mmHg 57%
    18:00 +23°C° 0.2 mm 2 mps 748 mmHg 64%
    19:00 +20°C° 0.2 mm 3 mps 748 mmHg 71%
    20:00 +19°C° 0.1 mm 2 mps 748 mmHg 77%
    21:00 +18°C° 0.1 mm 2 mps 749 mmHg 82%
    22:00 +17°C° 0.1 mm 2 mps 749 mmHg 88%
    23:00 +17°C° 0.3 mm 3 mps 749 mmHg 90%

    Tomorrow, 22 May, Wednesday

    Time Temperature Precipitation Wind Pressure Humidity
    00:00 +17°C° 0.3 mm 3 mps 749 mmHg 92%
    01:00 +16°C° 0.3 mm 3 mps 749 mmHg 94%
    02:00 +15°C° 0.4 mm 4 mps 749 mmHg 93%
    03:00 +15°C° 0.4 mm 4 mps 749 mmHg 92%
    04:00 +15°C° 0.4 mm 4 mps 749 mmHg 92%
    05:00 +15°C° 1.2 mm 4 mps 750 mmHg 93%
    06:00 +15°C° 1.2 mm 4 mps 750 mmHg 93%
    07:00 +15°C° 1.2 mm 4 mps 750 mmHg 94%
    08:00 +15°C° 0.8 mm 4 mps 750 mmHg 94%
    09:00 +15°C° 0.8 mm 4 mps 751 mmHg 94%
    10:00 +15°C° 0.8 mm 4 mps 751 mmHg 93%
    11:00 +16°C° 0.1 mm 5 mps 751 mmHg 92%
    12:00 +16°C° 0.1 mm 5 mps 751 mmHg 90%
    13:00 +16°C° 0.1 mm 5 mps 752 mmHg 88%
    14:00 +16°C° 0.2 mm 6 mps 752 mmHg 89%
    15:00 +15°C° 0.2 mm 6 mps 752 mmHg 90%
    16:00 +14°C° 0.2 mm 6 mps 752 mmHg 91%
    17:00 +14°C° 0.1 mm 6 mps 753 mmHg 91%
    18:00 +14°C° 0.1 mm 6 mps 753 mmHg 91%
    19:00 +13°C° 0.1 mm 5 mps 753 mmHg 91%
    20:00 +13°C° 0.1 mm 5 mps 754 mmHg 91%
    21:00 +13°C° 0.1 mm 5 mps 754 mmHg 91%
    22:00 +13°C° 0.1 mm 5 mps 755 mmHg 91%
    23:00 +12°C° 0.1 mm 5 mps 755 mmHg 91%

    Day after tomorrow, 23 May, Thursday

    Time Temperature Precipitation Wind Pressure Humidity
    00:00 +12°C° 0.1 mm 5 mps 755 mmHg 91%
    01:00 +12°C° 0.1 mm 5 mps 756 mmHg 91%
    02:00 +10°C° 0.1 mm 5 mps 756 mmHg 90%
    03:00 +10°C° 0.1 mm 5 mps 756 mmHg 90%
    04:00 +10°C° 0.1 mm 5 mps 756 mmHg 89%
    05:00 +10°C° 0 mm 5 mps 757 mmHg 88%
    06:00 +10°C° 0 mm 5 mps 757 mmHg 87%
    07:00 +9°C° 0 mm 5 mps 757 mmHg 86%
    08:00 +12°C° 0 mm 5 mps 758 mmHg 77%
    09:00 +14°C° 0 mm 5 mps 758 mmHg 67%
    10:00 +15°C° 0 mm 5 mps 758 mmHg 58%
    11:00 +16°C° 0 mm 5 mps 758 mmHg 53%
    12:00 +17°C° 0 mm 5 mps 758 mmHg 49%
    13:00 +19°C° 0 mm 5 mps 758 mmHg 44%
    14:00 +19°C° 0 mm 5 mps 758 mmHg 45%
    15:00 +19°C° 0 mm 4 mps 758 mmHg 45%
    16:00 +19°C° 0 mm 4 mps 757 mmHg 45%
    17:00 +18°C° 0 mm 4 mps 757 mmHg 51%
    18:00 +17°C° 0 mm 3 mps 757 mmHg 57%
    19:00 +16°C° 0 mm 3 mps 757 mmHg 62%
    20:00 +14°C° 0 mm 2 mps 758 mmHg 68%
    21:00 +13°C° 0 mm 2 mps 758 mmHg 73%
    22:00 +11°C° 0 mm 1 mps 758 mmHg 79%
    23:00 +11°C° 0 mm 1 mps 758 mmHg 78%

    24 May, Friday

    Time Temperature Precipitation Wind Pressure Humidity
    00:00 +10°C° 0 mm 1 mps 758 mmHg 76%
    01:00 +10°C° 0 mm 1 mps 758 mmHg 75%
    02:00 +10°C° 0 mm 1 mps 758 mmHg 75%
    03:00 +10°C° 0 mm 1 mps 758 mmHg 76%
    04:00 +10°C° 0 mm 1 mps 757 mmHg 76%
    05:00 +12°C° 0 mm 2 mps 757 mmHg 72%
    06:00 +13°C° 0 mm 2 mps 757 mmHg 68%
    07:00 +15°C° 0 mm 2 mps 757 mmHg 64%
    08:00 +16°C° 0 mm 2 mps 757 mmHg 61%
    09:00 +18°C° 0 mm 2 mps 757 mmHg 57%
    10:00 +20°C° 0 mm 3 mps 756 mmHg 53%
    11:00 +20°C° 0.2 mm 3 mps 756 mmHg 53%
    12:00 +20°C° 0.2 mm 3 mps 756 mmHg 53%
    13:00 +21°C° 0.2 mm 3 mps 755 mmHg 53%
    14:00 +21°C° 0.2 mm 3 mps 755 mmHg 52%
    15:00 +22°C° 0.2 mm 3 mps 754 mmHg 51%
    16:00 +22°C° 0.2 mm 3 mps 754 mmHg 50%
    17:00 +21°C° 0.1 mm 3 mps 754 mmHg 56%
    18:00 +19°C° 0.1 mm 2 mps 753 mmHg 63%
    19:00 +18°C° 0.1 mm 2 mps 753 mmHg 69%
    20:00 +17°C° 0.2 mm 2 mps 753 mmHg 75%
    21:00 +16°C° 0.2 mm 2 mps 753 mmHg 80%
    22:00 +14°C° 0.2 mm 2 mps 753 mmHg 86%
    23:00 +14°C° 0 mm 2 mps 753 mmHg 88%

    25 May, Saturday

    Time Temperature Precipitation Wind Pressure Humidity
    00:00 +14°C° 0 mm 2 mps 753 mmHg 89%
    01:00 +12°C° 0 mm 3 mps 753 mmHg 91%
    02:00 +11°C° 0 mm 3 mps 753 mmHg 92%
    03:00 +11°C° 0 mm 3 mps 753 mmHg 94%
    04:00 +10°C° 0 mm 3 mps 754 mmHg 96%
    05:00 +10°C° 0 mm 4 mps 754 mmHg 91%
    06:00 +11°C° 0 mm 4 mps 754 mmHg 87%
    07:00 +10°C° 0 mm 5 mps 754 mmHg 82%
    08:00 +10°C° 0 mm 5 mps 755 mmHg 80%
    09:00 +12°C° 0 mm 5 mps 755 mmHg 77%
    10:00 +12°C° 0 mm 5 mps 755 mmHg 75%
    11:00 +13°C° 0 mm 5 mps 755 mmHg 71%
    12:00 +14°C° 0 mm 5 mps 755 mmHg 66%
    13:00 +15°C° 0 mm 6 mps 755 mmHg 62%
    14:00 +15°C° 0 mm 6 mps 755 mmHg 63%
    15:00 +14°C° 0 mm 5 mps 754 mmHg 64%
    16:00 +14°C° 0 mm 5 mps 754 mmHg 65%
    17:00 +13°C° 0.1 mm 5 mps 754 mmHg 69%
    18:00 +13°C° 0.1 mm 5 mps 754 mmHg 73%
    19:00 +12°C° 0.1 mm 5 mps 754 mmHg 77%
    20:00 +12°C° 0.1 mm 5 mps 754 mmHg 80%
    21:00 +12°C° 0.1 mm 5 mps 754 mmHg 83%
    22:00 +10°C° 0.1 mm 5 mps 754 mmHg 85%
    23:00 +10°C° 0.1 mm 5 mps 754 mmHg 85%

    26 May, Sunday

    Time Temperature Precipitation Wind Pressure Humidity
    00:00 +9°C° 0.1 mm 5 mps 753 mmHg 85%
    01:00 +9°C° 0.1 mm 5 mps 753 mmHg 86%
    02:00 +8°C° 0 mm 5 mps 753 mmHg 85%
    03:00 +8°C° 0 mm 5 mps 753 mmHg 85%
    04:00 +7°C° 0 mm 5 mps 753 mmHg 84%
    05:00 +7°C° 0 mm 5 mps 753 mmHg 81%
    06:00 +7°C° 0 mm 5 mps 753 mmHg 78%
    07:00 +8°C° 0 mm 6 mps 753 mmHg 75%
    08:00 +8°C° 0 mm 6 mps 753 mmHg 73%
    09:00 +9°C° 0 mm 6 mps 753 mmHg 71%
    10:00 +9°C° 0 mm 6 mps 753 mmHg 70%
    11:00 +9°C° 0 mm 6 mps 753 mmHg 70%
    12:00 +9°C° 0 mm 6 mps 753 mmHg 69%
    13:00 +9°C° 0 mm 6 mps 753 mmHg 69%
    14:00 +9°C° 0 mm 6 mps 753 mmHg 69%
    15:00 +10°C° 0 mm 6 mps 752 mmHg 70%
    16:00 +10°C° 0 mm 6 mps 752 mmHg 70%
    17:00 +9°C° 0.1 mm 6 mps 752 mmHg 72%
    18:00 +9°C° 0.1 mm 5 mps 752 mmHg 73%
    19:00 +9°C° 0.1 mm 5 mps 752 mmHg 74%
    20:00 +8°C° 0 mm 5 mps 752 mmHg 73%
    21:00 +8°C° 0 mm 5 mps 753 mmHg 71%
    22:00 +8°C° 0 mm 5 mps 753 mmHg 69%
    23:00 +8°C° 0 mm 5 mps 753 mmHg 70%
    Show more